Content
SEND FEEDBACK

Daily
Averages
Monthly
Summary
India

AHMEDABAD, INDIA


Home > Asia > India
Elevation: 180 feet     Latitude: 23 04N     Longitude: 072 38E

WEATHER
 
SELECT A DAY
Number of Records: 210,786;   Date Range: 7/1/96 - 8/31/14
 
SHARE

PRINT THIS DATA

[ ← Previous Day ]
WEATHER ALMANAC - APRIL 1, 2013
[ Next Day → ]
[ °C ]   °F
Weather ElementAverageHighLow
Temperature88.8 °F104 °F (4:40 pm)75 °F (5:30 am)
Dewpoint54.8 °F59 °F (3:40 pm)45 °F (11:30 am)
Humidity30.7 %44 % (5:10 am)9 % (2:30 pm)
Wind Speed6.6 mph64.4 mph (6:10 pm)
Weather ElementAverage
Visibility3 mi
Wind DirectionWNW (300 °)

Weather ElementTotal
Precipitation---
Cooling Degree Days24.5 (Base 65)
Growing Degree Days39.5 (Base 50)
Averaged from 48 records on April 1, 2013
WEATHER CONDITIONS BREAKOUT
WIND DIRECTION BREAKOUT
WEATHER BY HOUR - APRIL 1, 2013
[ °C ]   °F
Local TimeTemperatureDewpointHumidityBarometerVisibilityWind DirectionWind SpeedGust SpeedPrecipitationEventsConditions
1:10 AM84.2 °F55.4 °F37 %2.5 miNW (320°)4.6 mphSmoke
1:40 AM84.2 °F55.4 °F37 %2.5 miWNW (290°)4.6 mphSmoke
2:10 AM82.4 °F55.4 °F39 %2.5 miNW (320°)4.6 mphSmoke
2:30 AM80.0 °F51.0 °F25 %29.76 in2.0 miNW (320°)6.9 mph
2:40 AM82.4 °F53.6 °F37 %2.5 miNW (320°)4.6 mphSmoke
3:10 AM82.4 °F53.6 °F37 %2.5 miNW (320°)5.8 mphSmoke
3:40 AM80.6 °F51.8 °F37 %2.5 miNW (320°)5.8 mphSmoke
4:10 AM80.6 °F51.8 °F37 %2.5 miNNW (330°)9.2 mphSmoke
4:40 AM78.8 °F51.8 °F39 %2.5 miWNW (300°)8.1 mphSmoke
5:10 AM77.0 °F53.6 °F44 %2.5 miNW (320°)6.9 mphSmoke
5:30 AM75.0 °F48.0 °F28 %29.78 in2.0 miNW (320°)3.5 mph
5:40 AM77.0 °F53.6 °F44 %2.5 miNW (310°)6.9 mphSmoke
6:10 AM77.0 °F51.8 °F41 %2.5 miNW (320°)6.9 mphSmoke
6:40 AM77.0 °F53.6 °F44 %2.5 miWNW (300°)8.1 mphSmoke
7:10 AM77.0 °F53.6 °F44 %2.5 miNW (320°)10.4 mphSmoke
7:40 AM78.8 °F55.4 °F44 %2.5 miNW (320°)9.2 mphSmoke
8:10 AM80.6 °F55.4 °F42 %2.5 miNW (320°)9.2 mphSmoke
8:30 AM80.0 °F51.0 °F26 %29.83 in2.0 miNW (320°)3.5 mph
8:40 AM82.4 °F55.4 °F39 %2.5 miNNW (330°)6.9 mphSmoke
9:40 AM87.8 °F57.2 °F35 %2.5 miNW (320°)9.2 mphSmoke
10:40 AM91.4 °F57.2 °F31 %3.1 miNNW (340°)6.9 mphSmoke
11:10 AM93.2 °F57.2 °F30 %3.1 miNNW (340°)5.8 mphSmoke
11:30 AM93.0 °F45.0 °F11 %29.83 in2.0 miNW (320°)6.9 mph
11:40 AM95.0 °F57.2 °F28 %3.7 miNNW (330°)5.8 mph
12:10 PM96.8 °F57.2 °F27 %3.7 miNNW (330°)5.8 mph
1:40 PM100.4 °F57.2 °F24 %29.77 in5.0 miWNW (300°)5.8 mph
2:30 PM99.0 °F45.0 °F9 %29.77 in2.0 miWest (270°)3.5 mph
2:40 PM100.4 °F57.2 °F24 %29.74 in5.0 miNNW (340°)5.8 mph
3:10 PM102.2 °F57.2 °F22 %29.71 in5.0 miWNW (300°)6.9 mph
3:40 PM102.2 °F59.0 °F24 %29.71 in5.0 miWNW (300°)6.9 mph
4:10 PM102.2 °F59.0 °F24 %29.71 in5.0 miWest (280°)6.9 mph
4:40 PM104.0 °F59.0 °F23 %29.71 in5.0 miWNW (290°)5.8 mph
5:10 PM102.2 °F59.0 °F24 %29.71 in5.0 miWNW (290°)5.8 mph
5:30 PM99.0 °F48.0 °F10 %29.72 in2.0 miNW (320°)4.6 mph
5:40 PM100.4 °F59.0 °F25 %29.71 in5.0 miWNW (290°)4.6 mph
6:10 PM100.4 °F59.0 °F25 %29.71 in5.0 miWNW (300°)64.4 mph
7:10 PM96.8 °F57.2 °F27 %29.71 in2.5 miWest (280°)3.5 mphSmoke
7:40 PM95.0 °F55.4 °F26 %29.71 in2.5 miWest (280°)2.3 mphSmoke
8:10 PM93.2 °F55.4 °F28 %29.71 in2.5 miWest (280°)2.3 mphSmoke
8:30 PM86.0 °F54.0 °F23 %29.75 in2.0 miNW (320°)3.5 mphSmoke
8:40 PM91.4 °F55.4 °F29 %29.74 in2.5 miCalmSmoke
9:10 PM91.4 °F55.4 °F29 %29.74 in2.5 miCalmSmoke
9:40 PM89.6 °F57.2 °F33 %29.74 in2.5 miWNW (300°)3.5 mphSmoke
10:10 PM89.6 °F57.2 °F33 %29.74 in2.5 miNNW (330°)3.5 mphSmoke
10:40 PM89.6 °F57.2 °F33 %29.74 in2.5 miNorth (350°)3.5 mphSmoke
11:10 PM87.8 °F55.4 °F33 %29.74 in2.5 miNNW (340°)3.5 mphSmoke
11:30 PM81.0 °F54.0 °F29 %29.77 in2.0 miNW (320°)2.3 mphSmoke
11:40 PM86.0 °F55.4 °F35 %29.74 in2.5 miNW (320°)3.5 mphSmoke
Hourly data recorded from VAAH, located miles away from Ahmedabad, India







STORIES FROM OUR PARTNERS